OneWeb SL0187

operational
NORAD ID: 48221 Int'l Des: 2021-031 Owner: ONEWEBN Country: UK Constellation: oneweb
LEOCIRCULARPOLARONEWEB_TYPE

关于 OneWeb SL0187

正在加载描述...

实时位置

正在加载3D地球...

即将过境

高度历史

Altitude vs Time

uPlot chart will show altitude changes over time

两行轨道根数

1 48221U 21031M 25352.18977663 -.00000538 00000-0 -14852-2 0 9998
2 48221 87.8990 325.7912 0001512 84.2348 275.8954 13.14502191224484
Epoch: Dec 18, 2025 • Age: 12 hours

当前状态

高度 1214.3 km
速度 7.25 km/s
星下点 -21.08°S, 170.94°E
发射日期 Apr 25, 2021
运行时间 4.6 years
类型 internet

技术详情

分类 Payload
质量 148.00 kg
干质量 140.00 kg
总质量 148.00 kg
长度 1.30 m
直径 1.00 m
跨度 5.00 m
形状 Trapezoid+2 pan
制造商 ONEWUS
平台类型 ARROW
阶段状态 In Orbit
所有者/国家 ONEWEBN/UK

大型星座

Loading constellations...